Regional Weather Roundup
Issued by NWS

Home | Current Version | Previous Version | Graphics & Text | Print | Product List | Glossary Off
Versions: 1 2 3 4 5 6 7 8 9 10 11 12 13 14 15 16 17 18 19 20 21 22 23 24 25 26 27 28 29 30 31 32 33 34 35 36 37 38 39 40 41 42 43 44 45 46 47 48 49 50

000
ASUS43 KDTX 211001
RWRMI
MICHIGAN HOURLY REGIONAL WEATHER ROUNDUP
NATIONAL WEATHER SERVICE DETROIT/PONTIAC MI
500 AM EST TUE FEB 21 2017

NOTE: "FAIR" INDICATES FEW OR NO CLOUDS BELOW 12,000 FEET WITH NO
SIGNIFICANT WEATHER AND/OR OBSTRUCTION TO VISIBILITY.

MIZ047>049-052>055-059>063-066>070-074>076-081>083-211100-
SOUTHEAST LOWER MICHIGAN

CITY           SKY/WX    TMP DP  RH WIND       PRES   REMARKS
ADRIAN         CLOUDY    36  34  92 NE3       30.00S
ALMA           CLOUDY    40  34  80 S3        29.93F
ANN ARBOR      CLOUDY    37  32  82 CALM      30.01R
BAD AXE        CLOUDY    37  28  69 S13       29.97F WCI  29
CARO           CLOUDY    42  32  67 SE9       29.95F
DETROIT CITY   PTCLDY    36  32  85 E3        30.00F
DETROIT        CLOUDY    38  32  79 CALM      30.01F
FLINT          CLOUDY    42  33  70 S13       29.96F
GROSSE ILE     CLOUDY    38  33  81 CALM      29.99F
HILLSDALE      CLOUDY    41  36  81 S7        29.96F
HOWELL         CLOUDY    41  32  71 SE9       29.97F

CITY           SKY/WX    TMP DP  RH WIND       PRES   REMARKS
JACKSON        CLOUDY    42  34  73 S8        29.97R
LAMBERTVILLE   CLOUDY    37  34  87 CALM      30.00S
LANSING        CLOUDY    45  34  65 S13       29.96R
LAPEER         FAIR      38  31  74 SE9       29.98F WCI  32
MASON          CLOUDY    44  37  76 S10       29.96R
MONROE         CLOUDY    37  34  90 CALM      30.01R
MT. CLEMENS    CLOUDY    35  33  94 SE5       29.99F WCI  30
PONTIAC        PTCLDY    37  30  75 SE3       29.98F
PORT HOPE        N/A     38  27  64 S12       29.94F WCI  30
PORT HURON     PTCLDY    36  28  75 SE5       30.01F WCI  32
TRI CITIES     PTCLDY    41  33  73 S10       29.94F
MIDLAND        FAIR      41  30  65 S5        29.93F
TROY           PTCLDY    37  29  72 NE3       30.02F
SAGINAW HB     CLOUDY    41  32  70 SE9       29.93F
$$
MIZ043>046-050>051-056>058-064>065-071>073-077>080-211100-
SOUTHWEST LOWER MICHIGAN

CITY           SKY/WX    TMP DP  RH WIND       PRES   REMARKS
BATTLE CREEK   CLOUDY    48  39  71 S13       29.95F
BENTON HARBOR  CLOUDY    55  43  63 S8        29.92S
BIG RAPIDS     CLOUDY    46  35  67 CALM      29.89S
COLDWATER      CLOUDY    45  37  73 CALM      29.96S
FREMONT        CLOUDY    50  37  61 S3        29.89R
HOLLAND        CLOUDY    54  43  66 S12       29.91R
GRAND RAPIDS   CLOUDY    51  39  63 S16       29.91S
IONIA          MOCLDY    44  35  71 S8        29.92F
KALAMAZOO      CLOUDY    48  37  65 S5        29.94F
LUDINGTON      LGT RAIN  49  46  91 S17G26    29.85S
MARSHALL       MOCLDY    48  38  68 S6        29.96S
MOUNT PLEASANT CLOUDY    40  32  74 SE3       29.92S
MUSKEGON       CLOUDY    56  43  61 S20G30    29.89R
SOUTH HAVEN    CLOUDY    55  44  67 S9        29.91F
$$
MIZ016>042-211100-
NORTHERN LOWER MICHIGAN

CITY           SKY/WX    TMP DP  RH WIND       PRES   REMARKS
ALPENA         CLOUDY    41  31  67 S14       29.90F
BEAVER ISLAND  DRIZZLE   43  39  86 S8G17     29.76F
BELLAIRE       LGT RAIN  47  37  68 S8        29.85R
CADILLAC       CLOUDY    44  35  70 S6        29.87S
CHARLEVOIX     LGT RAIN  46  39  76 S12G23    29.82S
FRANKFORT      LGT RAIN  50  47  90 SE12G22   29.80F
GAYLORD        CLOUDY    43  32  65 S14       29.84F
GRAYLING       CLOUDY    42  33  70 S7        29.89S
HARBOR SPRINGS LGT RAIN  48  37  67 CALM      29.81S
HOUGHTON LAKE  CLOUDY    41  31  67 S8        29.91S
MANISTEE       RAIN      48  46  93 SE6       29.84F
OSCODA         CLOUDY    38  29  70 S9        29.94F WCI  32
PELLSTON       LGT RAIN  46  34  62 S7        29.81S
ROGERS CITY    CLOUDY    41  31  67 S14G21    29.85F
TRAVERSE CITY  LGT RAIN  48  41  76 S6        29.83R
$$
MIZ007>008-015-211100-
EASTERN UPPER MICHIGAN

CITY           SKY/WX    TMP DP  RH WIND       PRES   REMARKS
KINROSS        CLOUDY    34  32  92 SE18      29.80F WCI  23
MACKINAC ISLAN FLURRIES  36  36 100 E8        29.79F WCI  29
NEWBERRY       LGT RAIN  38  37  97 S14G22    29.74F WCI  30
S. S. MARIE    LGT RAIN  35  32  88 SE8G17    29.82F WCI  29
MUNISING         N/A     43  41  93 S9        29.67S
$$
MIZ004>006-011>014-085-211100-
CENTRAL UPPER MICHIGAN

CITY           SKY/WX    TMP DP  RH WIND       PRES   REMARKS
MANISTIQUE     DRIZZLE   39  38  97 S7        29.73F WCI  34
ESCANABA       CLOUDY    43  41  93 SW14      29.72S FOG
MENOMINEE      CLOUDY    49  47  93 SW8       29.75R FOG
SAWYER-GWINN   LGT RAIN  44  43  97 SW17G25   29.67R VSB 3/4
$$
MIZ001>003-009>011-084-211100-
WESTERN UPPER MICHIGAN

CITY           SKY/WX    TMP DP  RH WIND       PRES   REMARKS
IRON MOUNTAIN  CLOUDY    48  46  93 W8        29.69R
HOUGHTON       CLOUDY    41  37  86 W33G48    29.63R
COPPER HARBOR    N/A     46  43  89 NW13G28   29.58R
IRONWOOD       CLOUDY    40  37  89 W13       29.75R WCI  32
$$

ABBREVIATIONS USED IN REMARKS
   TC - TEMPERATURE IN CELSIUS
  WCI - WIND CHILL INDEX
   HX - HEAT INDEX
  VSB - VISIBILITY




USA.gov is the U.S. government's official web portal to all federal, state and local government web resources and services.